Location: Unspecified
(0.0000°N, 0.0000°E)
Time: 06:50:48
(UTC+00:00)

Vanguard 3 - Visible Passes

Search period start: 08 February 2023 00:00
Search period end: 18 February 2023 00:00
Orbit: 510 x 3252 km, 33.3° (Epoch: 07 February)

Date Brightness Start Highest point End Pass type
(mag) Time Alt. Az. Time Alt. Az. Time Alt. Az.
08 Feb 10.3 01:47:16 48° SE 01:47:16 48° SE 01:57:12 10° SE visible
08 Feb 10.3 03:51:42 33° WSW 03:56:23 37° SW 04:09:20 10° SSE visible
08 Feb 11.0 21:50:58 10° NNW 21:51:09 10° NNW 21:51:09 10° NNW visible
09 Feb 11.1 00:35:57 21° ESE 00:35:57 21° ESE 00:39:47 10° ESE visible
09 Feb 10.1 02:40:23 54° SSW 02:40:23 54° SSW 02:54:05 10° SE visible
09 Feb 10.7 04:44:48 12° WSW 04:55:09 21° SSW 05:04:34 10° SSE visible
09 Feb 10.6 20:37:01 10° N 20:40:01 14° N 20:40:01 14° N visible
09 Feb11.423:24:35ESE23:24:35ESE22:44:28NWvisible
10 Feb 10.5 01:29:00 40° SE 01:29:00 40° SE 01:37:47 10° SE visible
10 Feb 10.5 03:33:25 33° SW 03:36:41 35° SW 03:50:10 10° SSE visible
10 Feb 11.0 05:51:31 10° SW 05:54:46 11° SSW 05:57:44 10° S visible
10 Feb 10.8 21:31:50 10° NNW 21:33:20 14° NNW 21:33:20 14° NNW visible
11 Feb 11.3 00:17:34 17° ESE 00:17:34 17° ESE 00:20:12 10° ESE visible
11 Feb 10.3 02:21:59 47° S 02:21:59 47° S 02:34:41 10° SE visible
11 Feb 10.9 04:26:24 13° WSW 04:35:57 20° SSW 04:45:37 10° SSE visible
11 Feb 10.5 20:18:10 10° N 20:22:15 16° NNE 20:22:15 16° NNE visible
12 Feb 10.7 01:10:29 34° SE 01:10:29 34° SE 01:18:09 10° SE visible
12 Feb 10.6 03:14:54 31° SW 03:17:00 32° SSW 03:30:52 10° SSE visible
12 Feb 11.1 05:31:58 10° SW 05:36:05 11° SSW 05:39:47 10° S visible
12 Feb 10.5 21:12:45 10° NNW 21:15:39 19° N 21:15:39 19° N visible
12 Feb 11.4 23:58:57 14° ESE 23:58:57 14° ESE 00:00:25 10° ESE visible
13 Feb 10.5 02:03:21 41° S 02:03:21 41° S 02:15:04 10° SE visible
13 Feb 11.0 04:07:46 13° WSW 04:16:46 19° SSW 04:26:37 10° SSE visible
13 Feb 10.3 19:59:16 10° N 20:04:38 17° NNE 20:04:38 17° NNE visible
13 Feb 10.9 22:08:20 10° NW 22:09:06 13° NW 22:09:06 13° NW visible
14 Feb 10.9 00:51:45 28° SE 00:51:45 28° SE 00:58:18 10° SE visible
14 Feb 10.7 02:56:09 30° SW 02:57:19 30° SSW 03:11:26 10° SSE visible
14 Feb 11.2 05:12:11 10° SW 05:17:22 12° SSW 05:21:56 10° S visible
14 Feb 10.2 20:53:42 10° NNW 20:58:08 25° N 20:58:08 25° N visible
14 Feb 11.4 23:40:07 11° SE 23:40:07 11° SE 23:40:24 10° SE visible
15 Feb 10.7 01:44:31 36° S 01:44:31 36° S 01:55:18 10° SE visible
15 Feb 11.1 03:48:55 13° SW 03:57:35 19° SSW 04:07:35 10° SSE visible
15 Feb 10.1 19:40:21 10° N 19:47:15 19° NE 19:47:15 19° NE visible
15 Feb 10.5 21:49:14 10° NW 21:51:43 20° NW 21:51:43 20° NW visible
16 Feb 11.1 00:32:50 24° SE 00:32:50 24° SE 00:38:16 10° SE visible
16 Feb 10.8 02:37:13 28° SSW 02:37:41 28° SSW 02:51:53 10° SSE visible
16 Feb 11.2 04:52:16 10° SSW 04:58:37 13° S 05:04:09 10° SSE visible
16 Feb 9.8 20:34:41 10° NNW 20:40:53 32° N 20:40:53 32° N visible
16 Feb11.123:21:06SE23:21:06SE22:45:22NWvisible
17 Feb 10.8 01:25:30 31° S 01:25:30 31° S 01:35:22 10° SSE visible
17 Feb 11.2 03:29:53 13° SW 03:38:25 18° SSW 03:48:33 10° SSE visible
17 Feb 10.0 19:21:24 10° N 19:28:02 20° NE 19:30:08 19° NE visible
17 Feb 10.0 21:30:12 10° NW 21:34:37 31° NW 21:34:37 31° NW visible
